FW3318 Weather Reports


time (UTC)temp
C
wind
direction
speed
KPH
gust
KPH
rain 1hr
cm
rain 24hr
cm
rain mn
cm
humidity
%
barometer
mb
20260507034037 5 159 0.0 9.7 0.00 0.00 0.00 50 1014.4
20260507033537 6 180 1.6 11.3 0.00 0.00 0.00 50 1014.4
20260507033037 6 217 3.2 11.3 0.00 0.00 0.00 51 1014.5
20260507032539 6 153 3.2 8.0 0.00 0.00 0.00 50 1014.4
20260507032036 6 213 3.2 9.7 0.00 0.00 0.00 50 1014.4
20260507031537 6 190 1.6 12.9 0.00 0.00 0.00 51 1014.3
20260507031036 6 173 3.2 12.9 0.00 0.00 0.00 48 1014.2
20260507030536 6 202 1.6 14.5 0.00 0.00 0.00 49 1014.2
20260507030035 6 260 1.6 14.5 0.00 0.00 0.00 49 1014.2
20260507025534 6 299 3.2 12.9 0.00 0.00 0.00 49 1014.2
20260507025034 6 280 4.8 12.9 0.00 0.00 0.00 50 1014.2
20260507024537 6 180 1.6 12.9 0.00 0.00 0.00 46 1014.1
20260507024034 6 204 3.2 12.9 0.00 0.00 0.00 48 1014.0
20260507023533 6 257 1.6 12.9 0.00 0.00 0.00 49 1014.0
20260507023035 6 220 3.2 8.0 0.00 0.00 0.00 50 1014.0
20260507022534 6 172 3.2 9.7 0.00 0.00 0.00 48 1014.0
20260507022034 6 163 1.6 8.0 0.00 0.00 0.00 48 1013.9
20260507021533 6 180 3.2 8.0 0.00 0.00 0.00 50 1013.9
20260507021036 6 267 1.6 6.4 0.00 0.00 0.00 49 1013.9
20260507020533 6 239 1.6 8.0 0.00 0.00 0.00 49 1013.9
20260507020041 6 227 3.2 8.0 0.00 0.00 0.00 50 1013.9
20260507015533 6 279 1.6 8.0 0.00 0.00 0.00 50 1013.9
20260507015032 6 244 3.2 11.3 0.00 0.00 0.00 50 1013.9
20260507014531 6 307 1.6 11.3 0.00 0.00 0.00 49 1013.8
20260507014033 6 330 3.2 8.0 0.00 0.00 0.00 48 1013.8
20260507013531 6 267 1.6 8.0 0.00 0.00 0.00 50 1013.9
20260507013046 6 238 3.2 9.7 0.00 0.00 0.00 51 1013.9
20260507012531 6 209 1.6 14.5 0.00 0.00 0.00 51 1013.9
20260507012031 6 214 4.8 19.3 0.00 0.00 0.00 50 1013.8
20260507011533 6 237 3.2 19.3 0.00 0.00 0.00 49 1013.7
20260507011033 6 188 4.8 11.3 0.00 0.00 0.00 49 1013.7
20260507010532 7 226 3.2 9.7 0.00 0.00 0.00 49 1013.7
20260507010036 7 213 3.2 11.3 0.00 0.00 0.00 47 1013.6
20260507005529 6 263 1.6 12.9 0.00 0.00 0.00 50 1013.6
20260507005030 7 211 3.2 12.9 0.00 0.00 0.00 50 1013.6
20260507004529 7 283 3.2 11.3 0.00 0.00 0.00 50 1013.7
20260507004030 6 259 1.6 11.3 0.00 0.00 0.00 49 1013.6
20260507003530 7 232 4.8 9.7 0.00 0.00 0.00 49 1013.6
20260507003028 6 215 1.6 9.7 0.00 0.00 0.00 50 1013.6
20260507002528 6 206 3.2 9.7 0.00 0.00 0.00 48 1013.6
20260507002027 6 235 1.6 12.9 0.00 0.00 0.00 50 1013.6
20260507001531 6 263 3.2 11.3 0.00 0.00 0.00 49 1013.6
20260507001028 6 173 4.8 11.3 0.00 0.00 0.00 50 1013.6
20260507000526 6 232 3.2 8.0 0.00 0.00 0.00 50 1013.7
20260507000026 6 94 3.2 9.7 0.00 0.00 0.00 49 1013.6
20260506235525 7 188 1.6 16.1 0.00 0.00 0.00 49 1013.6
20260506235025 7 271 4.8 16.1 0.00 0.00 0.00 50 1013.6
20260506234534 6 16 1.6 12.9 0.00 0.00 0.00 48 1013.6
20260506234025 7 148 4.8 11.3 0.00 0.00 0.00 46 1013.5
20260506233525 7 153 3.2 12.9 0.00 0.00 0.00 48 1013.5
20260506233036 7 207 1.6 11.3 0.00 0.00 0.00 48 1013.5
20260506232524 7 142 3.2 11.3 0.00 0.00 0.00 46 1013.5
20260506232024 7 237 1.6 11.3 0.00 0.00 0.00 48 1013.5
20260506231528 7 234 4.8 11.3 0.00 0.00 0.00 47 1013.4
20260506231022 7 145 3.2 8.0 0.00 0.00 0.00 49 1013.4
20260506230522 7 233 3.2 14.5 0.00 0.00 0.00 47 1013.5
20260506230026 7 224 4.8 14.5 0.00 0.00 0.00 45 1013.4
20260506225521 7 188 4.8 14.5 0.00 0.00 0.00 44 1013.5
20260506225020 7 198 3.2 11.3 0.00 0.00 0.00 52 1013.4
20260506224521 7 139 3.2 12.9 0.00 0.00 0.00 51 1013.4
20260506224021 7 222 3.2 16.1 0.00 0.00 0.00 52 1013.4
20260506223519 6 167 1.6 16.1 0.00 0.00 0.00 49 1013.5
20260506223018 6 248 4.8 12.9 0.00 0.00 0.00 50 1013.5
20260506222518 6 54 1.6 8.0 0.00 0.00 0.00 52 1013.4
20260506222020 6 226 3.2 9.7 0.00 0.00 0.00 50 1013.4
20260506221517 6 263 3.2 9.7 0.00 0.00 0.00 54 1013.4
20260506221017 6 159 3.2 12.9 0.00 0.00 0.00 52 1013.4
20260506220517 6 141 4.8 12.9 0.00 0.00 0.00 53 1013.4
20260506220023 6 254 3.2 12.9 0.00 0.00 0.00 54 1013.4
20260506215515 6 270 4.8 11.3 0.00 0.00 0.00 58 1013.4
20260506215012 6 179 4.8 12.9 0.00 0.00 0.00 56 1013.5
20260506214513 6 172 4.8 11.3 0.00 0.00 0.00 58 1013.5
20260506214014 6 179 3.2 11.3 0.00 0.00 0.00 59 1013.5
20260506213511 6 157 3.2 9.7 0.00 0.00 0.00 57 1013.4
20260506213010 6 166 4.8 12.9 0.00 0.00 0.00 57 1013.5
20260506212508 5 294 4.8 12.9 0.00 0.00 0.00 58 1013.4
20260506212007 5 238 3.2 8.0 0.00 0.00 0.00 60 1013.4
20260506211511 5 290 3.2 8.0 0.00 0.00 0.00 62 1013.3
20260506211007 5 338 4.8 8.0 0.00 0.00 0.00 60 1013.3
20260506210512 5 355 1.6 11.3 0.00 0.00 0.00 61 1013.3
20260506210011 5 207 3.2 8.0 0.00 0.00 0.00 61 1013.3
20260506205505 5 225 3.2 16.1 0.00 0.00 0.00 61 1013.2
20260506205010 5 184 1.6 16.1 0.00 0.00 0.00 63 1013.3
20260506204505 5 183 3.2 14.5 0.00 0.00 0.00 62 1013.4
20260506204005 5 159 1.6 14.5 0.00 0.00 0.00 62 1013.3
20260506203502 5 137 3.2 9.7 0.00 0.00 0.00 63 1013.4
20260506203002 5 249 1.6 17.7 0.00 0.00 0.00 63 1013.4
20260506202501 5 129 4.8 17.7 0.00 0.00 0.00 61 1013.4
20260506202001 5 279 4.8 14.5 0.00 0.00 0.00 63 1013.3
20260506201603 5 252 4.8 11.3 0.00 0.00 0.00 68 1013.3
20260506201059 4 205 3.2 11.3 0.00 0.00 0.00 66 1013.3
20260506200557 4 177 4.8 12.9 0.00 0.00 0.00 67 1013.3
20260506200056 4 238 3.2 11.3 0.00 0.00 0.00 66 1013.2
20260506195556 4 300 3.2 12.9 0.00 0.00 0.00 66 1013.4
20260506195056 4 151 3.2 14.5 0.00 0.00 0.00 68 1013.3
20260506194555 4 191 4.8 14.5 0.00 0.00 0.00 69 1013.2
20260506194055 3 228 1.6 12.9 0.00 0.00 0.00 70 1013.2
20260506193553 3 210 4.8 11.3 0.00 0.00 0.00 69 1013.1
20260506193052 3 138 3.2 12.9 0.00 0.00 0.00 73 1013.1
20260506192552 3 285 3.2 12.9 0.00 0.00 0.00 74 1013.1
20260506192052 3 207 3.2 14.5 0.00 0.00 0.00 75 1013.1
20260506191550 3 266 4.8 14.5 0.00 0.00 0.00 77 1013.0
20260506191050 3 157 3.2 16.1 0.00 0.00 0.00 76 1013.0
20260506190549 3 198 3.2 14.5 0.00 0.00 0.00 80 1013.0
20260506190046 3 202 4.8 12.9 0.00 0.00 0.00 82 1013.0
20260506185545 2 203 1.6 11.3 0.00 0.00 0.00 82 1013.0
20260506185046 2 203 3.2 11.3 0.00 0.00 0.00 82 1012.8
20260506184544 2 271 1.6 12.9 0.00 0.00 0.00 84 1012.8
20260506184043 2 192 1.6 11.3 0.00 0.00 0.00 86 1012.8
20260506183542 2 221 3.2 11.3 0.00 0.00 0.00 86 1012.7
20260506183041 2 207 4.8 11.3 0.00 0.00 0.00 86 1012.7
20260506182539 2 265 1.6 11.3 0.00 0.00 0.00 88 1012.7
20260506182039 2 178 4.8 11.3 0.00 0.00 0.00 89 1012.8
20260506181538 2 221 3.2 8.0 0.00 0.00 0.00 87 1012.7
20260506181041 2 197 3.2 8.0 0.00 0.00 0.00 87 1012.7
20260506180538 2 186 1.6 8.0 0.00 0.00 0.00 88 1012.7
20260506180040 2 206 1.6 8.0 0.00 0.00 0.00 88 1012.7
20260506175534 2 233 3.2 8.0 0.00 0.00 0.00 89 1012.6
20260506175035 2 201 3.2 8.0 0.00 0.00 0.00 89 1012.5
20260506174533 1 198 1.6 6.4 0.00 0.00 0.00 88 1012.5
20260506174033 1 226 1.6 11.3 0.00 0.00 0.00 88 1012.5
20260506173532 1 179 4.8 11.3 0.00 0.00 0.00 88 1012.5
20260506173038 1 206 1.6 11.3 0.00 0.00 0.00 88 1012.3
20260506172531 1 147 3.2 11.3 0.00 0.00 0.00 88 1012.4
20260506172029 2 180 3.2 12.9 0.00 0.00 0.00 87 1012.3
20260506171529 2 263 3.2 12.9 0.00 0.00 0.00 88 1012.3
20260506171028 1 221 1.6 8.0 0.00 0.00 0.00 88 1012.3
20260506170527 1 226 1.6 8.0 0.00 0.00 0.00 88 1012.2
20260506170030 1 226 3.2 8.0 0.00 0.00 0.00 87 1012.2
20260506165526 1 214 4.8 9.7 0.00 0.00 0.00 87 1012.1
20260506165026 1 209 1.6 17.7 0.00 0.00 0.00 88 1012.1
20260506164525 1 207 4.8 17.7 0.00 0.00 0.00 88 1012.1
20260506164024 1 227 1.6 9.7 0.00 0.00 0.00 89 1012.2
20260506163523 1 208 3.2 9.7 0.00 0.00 0.00 89 1012.1
20260506163024 1 176 3.2 8.0 0.00 0.00 0.00 89 1012.0
20260506162520 1 182 3.2 9.7 0.00 0.00 0.00 89 1012.1
20260506162021 1 157 1.6 9.7 0.00 0.00 0.00 89 1011.9
20260506161520 1 207 1.6 12.9 0.00 0.00 0.00 90 1012.0
20260506161020 1 236 1.6 12.9 0.00 0.00 0.00 90 1011.9
20260506160520 1 211 6.4 12.9 0.00 0.00 0.00 90 1011.8
20260506160019 1 213 1.6 9.7 0.00 0.00 0.00 90 1011.8
20260506155520 1 218 3.2 9.7 0.00 0.00 0.00 89 1011.7
20260506155017 1 220 1.6 6.4 0.00 0.00 0.00 89 1011.7
20260506154519 1 195 1.6 9.7 0.00 0.00 0.00 89 1011.8
20260506154017 1 213 4.8 9.7 0.00 0.00 0.00 89 1011.7
20260506153515 1 205 3.2 8.0 0.00 0.00 0.00 88 1011.8
20260506153014 1 191 1.6 9.7 0.00 0.00 0.00 88 1011.6
20260506152513 1 229 3.2 8.0 0.00 0.00 0.00 88 1011.6
20260506152013 1 193 1.6 8.0 0.00 0.00 0.00 88 1011.5
20260506151513 1 169 1.6 8.0 0.00 0.00 0.00 88 1011.4
20260506151012 1 206 3.2 9.7 0.00 0.00 0.00 88 1011.4
20260506150511 1 165 0.0 9.7 0.00 0.00 0.00 88 1011.3
20260506150011 1 286 3.2 9.7 0.00 0.00 0.00 88 1011.3
20260506145513 1 209 3.2 9.7 0.00 0.00 0.00 88 1011.3
20260506145008 1 212 3.2 9.7 0.00 0.00 0.00 89 1011.2
20260506144508 1 202 1.6 8.0 0.00 0.00 0.00 89 1011.1
20260506144007 1 202 1.6 8.0 0.00 0.00 0.00 89 1011.2
20260506143506 1 213 1.6 12.9 0.00 0.00 0.00 89 1011.0
20260506143007 1 188 1.6 12.9 0.00 0.00 0.00 89 1011.0
20260506142505 1 240 3.2 11.3 0.00 0.00 0.00 89 1010.8
20260506142004 1 218 1.6 11.3 0.00 0.00 0.00 89 1010.8
20260506141503 1 226 1.6 11.3 0.00 0.00 0.00 89 1010.7
20260506141002 1 210 3.2 16.1 0.00 0.00 0.00 89 1010.7
20260506140502 1 238 1.6 9.7 0.00 0.00 0.00 90 1010.7
20260506140100 1 148 1.6 9.7 0.00 0.00 0.00 90 1010.7
20260506135601 1 237 1.6 9.7 0.00 0.00 0.00 90 1010.7
20260506135058 2 184 1.6 6.4 0.00 0.00 0.00 90 1010.6
20260506134559 2 144 0.0 4.8 0.00 0.00 0.00 90 1010.7
20260506134057 2 183 1.6 11.3 0.00 0.00 0.00 90 1010.6
20260506133559 2 200 6.4 11.3 0.00 0.00 0.00 91 1010.5
20260506133104 2 212 0.0 9.7 0.00 0.00 0.00 91 1010.5
20260506132555 2 181 4.8 9.7 0.00 0.00 0.00 91 1010.4
20260506132054 2 198 1.6 8.0 0.00 0.00 0.00 91 1010.3
20260506131555 2 202 1.6 8.0 0.00 0.00 0.00 91 1010.3
20260506131051 2 178 1.6 8.0 0.00 0.00 0.00 91 1010.3
20260506130551 2 209 3.2 8.0 0.00 0.00 0.00 91 1010.3
20260506130049 2 192 1.6 6.4 0.00 0.00 0.00 91 1010.3
20260506125548 2 219 0.0 8.0 0.00 0.00 0.00 91 1010.2
20260506125047 2 223 1.6 8.0 0.00 0.00 0.00 91 1010.2
20260506124546 2 215 1.6 6.4 0.00 0.00 0.00 91 1010.0
20260506124045 2 206 1.6 6.4 0.00 0.00 0.00 91 1009.9
20260506123544 2 211 1.6 4.8 0.00 0.00 0.00 92 1009.9
20260506123046 2 200 0.0 6.4 0.00 0.00 0.00 92 1009.8
20260506122542 2 173 1.6 6.4 0.00 0.00 0.00 92 1009.7
20260506122043 2 248 0.0 4.8 0.00 0.00 0.00 92 1009.6
20260506121546 2 175 0.0 8.0 0.00 0.00 0.00 92 1009.6
20260506121039 2 258 1.6 8.0 0.00 0.00 0.00 92 1009.6
20260506120539 2 178 0.0 4.8 0.00 0.00 0.00 92 1009.4
20260506120105 2 190 0.0 4.8 0.00 0.00 0.00 92 1009.4
20260506115538 2 190 0.0 4.8 0.00 0.00 0.00 92 1009.3
20260506115038 2 184 0.0 4.8 0.00 0.00 0.00 92 1009.2
20260506114537 2 232 0.0 6.4 0.00 0.00 0.00 92 1009.2
20260506114036 3 218 1.6 6.4 0.00 0.00 0.00 92 1009.2
20260506113536 3 184 0.0 6.4 0.00 0.00 0.00 92 1009.2
20260506113036 3 133 1.6 8.0 0.00 0.00 0.00 92 1009.2
20260506112535 3 153 0.0 4.8 0.00 0.00 0.00 92 1009.1
20260506112034 3 252 0.0 4.8 0.00 0.00 0.00 91 1009.1
20260506111533 3 208 0.0 4.8 0.00 0.00 0.00 91 1008.9
20260506111035 3 206 1.6 4.8 0.00 0.00 0.00 92 1008.9
20260506110532 3 184 0.0 6.4 0.00 0.00 0.00 92 1008.9
20260506110031 3 184 3.2 6.4 0.00 0.00 0.00 92 1008.8
20260506105531 3 236 3.2 6.4 0.00 0.00 0.00 92 1008.7
20260506105028 3 207 0.0 9.7 0.00 0.00 0.00 92 1008.6
20260506104529 3 216 1.6 9.7 0.00 0.00 0.00 92 1008.6
20260506104026 3 195 1.6 8.0 0.00 0.00 0.00 92 1008.5
20260506103526 3 146 0.0 4.8 0.00 0.00 0.00 92 1008.5
20260506103029 3 181 1.6 4.8 0.00 0.00 0.00 92 1008.4
20260506102525 2 163 0.0 4.8 0.00 0.00 0.00 92 1008.4
20260506102024 2 178 0.0 4.8 0.00 0.00 0.00 91 1008.4
20260506101525 2 189 1.6 4.8 0.00 0.00 0.00 91 1008.4
20260506101023 2 153 0.0 4.8 0.00 0.00 0.00 91 1008.2
20260506100521 2 219 0.0 4.8 0.00 0.00 0.00 90 1008.2
20260506100022 3 184 1.6 4.8 0.00 0.00 0.00 90 1008.1
20260506095519 3 195 0.0 3.2 0.00 0.00 0.00 90 1008.0
20260506095018 3 195 0.0 3.2 0.00 0.00 0.00 90 1008.1
20260506094528 3 195 0.0 4.8 0.00 0.00 0.00 90 1007.9
20260506094015 3 158 0.0 4.8 0.00 0.00 0.00 90 1007.8
20260506093516 3 165 0.0 3.2 0.00 0.00 0.00 90 1007.7
20260506093023 3 163 0.0 0.0 0.00 0.00 0.00 90 1007.7
20260506092514 3 163 0.0 0.0 0.00 0.00 0.00 90 1007.6
20260506092014 3 163 0.0 0.0 0.00 0.00 0.00 90 1007.6
20260506091512 3 164 0.0 1.6 0.00 0.00 0.00 89 1007.5
20260506091012 3 163 0.0 4.8 0.00 0.00 0.00 89 1007.5
20260506090512 3 165 0.0 6.4 0.00 0.00 0.00 89 1007.4
20260506090009 3 149 0.0 3.2 0.00 0.00 0.00 88 1007.4
20260506085508 3 149 0.0 3.2 0.00 0.00 0.00 88 1007.3
20260506085007 3 149 0.0 1.6 0.00 0.00 0.00 88 1007.3
20260506084507 3 149 0.0 3.2 0.00 0.00 0.00 88 1007.2
20260506084006 4 195 0.0 0.0 0.00 0.00 0.00 88 1007.2
20260506083506 4 196 0.0 0.0 0.00 0.00 0.00 88 1007.2
20260506083004 4 195 0.0 1.6 0.00 0.00 0.00 87 1007.1
20260506082505 4 195 0.0 3.2 0.00 0.00 0.00 87 1007.0
20260506082003 4 195 1.6 3.2 0.00 0.00 0.00 87 1006.9
20260506081501 4 153 0.0 3.2 0.00 0.00 0.00 87 1006.7
20260506081100 4 153 0.0 1.6 0.00 0.00 0.00 86 1006.6
20260506080601 5 150 0.0 1.6 0.00 0.00 0.00 86 1006.6
20260506073100 5 248 1.6 6.4 0.00 0.00 0.00 84 1006.3
20260506072557 5 199 1.6 6.4 0.00 0.00 0.00 84 1006.3
20260506072054 5 298 1.6 14.5 0.00 0.00 0.00 84 1006.1
20260506071555 5 292 3.2 14.5 0.00 0.00 0.00 84 1006.1
20260506071053 5 241 1.6 6.4 0.00 0.00 0.00 84 1006.0
20260506070553 5 259 1.6 6.4 0.00 0.00 0.00 84 1006.1
20260506070114 5 227 1.6 8.0 0.00 0.00 0.00 84 1006.1
20260506062055 6 235 0.0 9.7 0.00 0.00 0.00 83 1005.9
20260506061550 6 221 1.6 6.4 0.00 0.00 0.00 83 1005.8
20260506061050 6 222 1.6 6.4 0.00 0.00 0.00 82 1005.7
20260506060550 6 201 1.6 6.4 0.00 0.00 0.00 82 1005.7
20260506051046 6 204 1.6 8.0 0.00 0.00 0.00 80 1005.4
20260506050544 6 236 1.6 8.0 0.00 0.00 0.00 80 1005.4
20260506045042 6 261 0.0 6.4 0.00 0.00 0.00 81 1005.2
20260506044554 6 261 1.6 6.4 0.00 0.00 0.00 81 1005.1
20260506044042 6 259 3.2 8.0 0.00 0.00 0.00 81 1005.2
20260506043542 6 268 3.2 8.0 0.00 0.00 0.00 81 1005.0
20260506043045 6 195 1.6 11.3 0.00 0.00 0.00 81 1005.0
20260506042542 6 234 4.8 11.3 0.00 0.00 0.00 81 1005.0
20260506042042 6 236 4.8 12.9 0.00 0.00 0.00 80 1004.9
20260506041549 6 300 4.8 16.1 0.00 0.00 0.00 81 1004.9
20260506041043 6 217 4.8 16.1 0.00 0.00 0.00 81 1005.1
20260506040541 6 259 3.2 12.9 0.00 0.00 0.00 81 1005.2
20260506040044 7 221 3.2 9.7 0.00 0.00 0.00 79 1005.1
20260506035540 7 215 3.2 11.3 0.00 0.00 0.00 78 1005.0
20260506035039 7 124 3.2 14.5 0.00 0.00 0.00 77 1005.0
20260506034539 7 232 3.2 16.1 0.00 0.00 0.00 76 1004.9